GW3320 Weather Reports


Display with metric or nautical units.
time (UTC)temp
F
wind
direction
speed
MPH
gust
MPH
rain 1hr
in
rain 24hr
in
rain mn
in
humidity
%
barometer
mb
20260906185527 90 81 2.0 7.0 0.00 0.00 0.00 52 1013.4
20260906185029 90 82 3.0 8.0 0.00 0.00 0.00 52 1013.5
20260906184551 90 70 3.0 8.0 0.00 0.00 0.00 53 1013.6
20260906184033 90 44 2.0 6.0 0.00 0.00 0.00 52 1013.7
20260906183526 91 68 1.0 6.0 0.00 0.00 0.00 51 1013.9
20260906183055 91 319 1.0 4.0 0.00 0.00 0.00 51 1014.1
20260906182525 90 49 1.0 6.0 0.00 0.00 0.00 52 1014.1
20260906182030 90 42 2.0 6.0 0.00 0.00 0.00 52 1014.3
20260906181553 90 336 2.0 7.0 0.00 0.00 0.00 53 1014.4
20260906181024 90 69 3.0 7.0 0.00 0.00 0.00 52 1014.4
20260906180527 89 33 2.0 10.0 0.00 0.00 0.00 53 1014.5
20260906180107 89 331 3.0 10.0 0.00 0.00 0.00 56 1014.8
20260906175525 89 323 4.0 9.0 0.00 0.00 0.00 55 1014.8
20260906175027 89 49 2.0 9.0 0.00 0.00 0.00 55 1014.9
20260906174557 89 46 4.0 11.0 0.00 0.00 0.00 55 1015.0
20260906174027 89 321 5.0 11.0 0.00 0.00 0.00 55 1015.1
20260906173529 89 326 3.0 10.0 0.00 0.00 0.00 54 1015.1
20260906173100 89 24 4.0 11.0 0.00 0.00 0.00 56 1015.1
20260906172524 89 360 4.0 12.0 0.00 0.00 0.00 55 1015.2
20260906172027 89 9 4.0 12.0 0.00 0.00 0.00 54 1015.2
20260906171554 89 311 3.0 9.0 0.00 0.00 0.00 54 1015.4
20260906171028 88 40 2.0 11.0 0.00 0.00 0.00 57 1015.4
20260906170524 88 330 4.0 11.0 0.00 0.00 0.00 56 1015.5
20260906170052 88 317 4.0 11.0 0.00 0.00 0.00 55 1015.5
20260906165523 88 23 3.0 12.0 0.00 0.00 0.00 55 1015.5
20260906165027 88 40 2.0 12.0 0.00 0.00 0.00 57 1015.6
20260906164547 88 325 6.0 12.0 0.00 0.00 0.00 55 1015.6
20260906164026 88 315 4.0 10.0 0.00 0.00 0.00 55 1015.7
20260906163523 87 0 4.0 10.0 0.00 0.00 0.00 56 1015.6
20260906163059 87 47 3.0 10.0 0.00 0.00 0.00 56 1015.5
20260906162525 86 317 4.0 10.0 0.00 0.00 0.00 57 1015.6
20260906162023 86 323 4.0 10.0 0.00 0.00 0.00 58 1015.6
20260906161553 86 350 4.0 11.0 0.00 0.00 0.00 57 1015.5
20260906161027 86 0 4.0 11.0 0.00 0.00 0.00 58 1015.6
20260906160524 86 342 4.0 10.0 0.00 0.00 0.00 56 1015.5
20260906160052 86 328 3.0 9.0 0.00 0.00 0.00 58 1015.6
20260906155524 85 349 4.0 9.0 0.00 0.00 0.00 59 1015.5
20260906155023 85 331 3.0 8.0 0.00 0.00 0.00 59 1015.4
20260906154551 84 319 2.0 6.0 0.00 0.00 0.00 60 1015.4
20260906154023 84 313 2.0 7.0 0.00 0.00 0.00 60 1015.4
20260906153529 83 317 3.0 7.0 0.00 0.00 0.00 61 1015.4
20260906153116 83 309 3.0 6.0 0.00 0.00 0.00 62 1015.3
20260906152524 83 303 2.0 8.0 0.00 0.00 0.00 64 1015.4
20260906152024 83 302 2.0 8.0 0.00 0.00 0.00 63 1015.3
20260906151600 82 289 2.0 8.0 0.00 0.00 0.00 63 1015.4
20260906151027 82 252 2.0 4.0 0.00 0.00 0.00 64 1015.3
20260906150524 82 244 2.0 4.0 0.00 0.00 0.00 65 1015.3
20260906150052 81 239 0.0 4.0 0.00 0.00 0.00 65 1015.3
20260906145525 81 0 0.0 4.0 0.00 0.00 0.00 66 1015.0
20260906145023 81 240 2.0 4.0 0.00 0.00 0.00 67 1015.2
20260906144558 81 239 0.0 4.0 0.00 0.00 0.00 67 1015.0
20260906144024 80 0 0.0 5.0 0.00 0.00 0.00 68 1015.0
20260906143524 80 239 1.0 7.0 0.00 0.00 0.00 68 1015.1
20260906143054 79 238 1.0 11.0 0.00 0.00 0.00 69 1015.0
20260906142525 79 243 2.0 11.0 0.00 0.00 0.00 72 1015.2
20260906142026 80 305 6.0 11.0 0.00 0.00 0.00 73 1015.6
20260906141553 79 0 1.0 3.0 0.00 0.00 0.00 70 1014.9
20260906141024 79 0 1.0 3.0 0.00 0.00 0.00 71 1014.8
20260906140525 78 0 0.0 1.0 0.00 0.00 0.00 73 1014.8
20260906140051 77 0 0.0 1.0 0.00 0.00 0.00 76 1014.8
20260906135528 77 0 0.0 0.0 0.00 0.00 0.00 79 1014.9
20260906135026 76 0 0.0 0.0 0.00 0.00 0.00 81 1014.9
20260906134606 75 0 0.0 0.0 0.00 0.00 0.00 83 1014.8
20260906134026 75 0 0.0 0.0 0.00 0.00 0.00 83 1014.7
20260906133530 74 0 0.0 0.0 0.00 0.00 0.00 84 1014.7
20260906133056 74 0 0.0 0.0 0.00 0.00 0.00 85 1014.7
20260906132524 73 0 0.0 0.0 0.00 0.00 0.00 86 1014.6
20260906132024 73 0 0.0 0.0 0.00 0.00 0.00 87 1014.6
20260906131555 72 0 0.0 0.0 0.00 0.00 0.00 89 1014.6
20260906131027 71 0 0.0 0.0 0.00 0.00 0.00 90 1014.5
20260906130524 70 0 0.0 0.0 0.00 0.00 0.00 91 1014.5
20260906130049 70 0 0.0 0.0 0.00 0.00 0.00 91 1014.4
20260906125525 69 0 0.0 0.0 0.00 0.00 0.00 90 1014.4
20260906125026 69 0 0.0 0.0 0.00 0.00 0.00 90 1014.3
20260906124555 69 0 0.0 0.0 0.00 0.00 0.00 90 1014.3
20260906124025 68 0 0.0 0.0 0.00 0.00 0.00 90 1014.2
20260906123525 68 0 0.0 0.0 0.00 0.00 0.00 90 1014.2
20260906123058 68 0 0.0 0.0 0.00 0.00 0.00 89 1014.1
20260906122524 68 0 0.0 0.0 0.00 0.00 0.00 89 1014.0
20260906122024 68 0 0.0 3.0 0.00 0.00 0.00 89 1013.9
20260906121552 68 0 0.0 3.0 0.00 0.00 0.00 89 1013.7
20260906121025 68 110 0.0 2.0 0.00 0.00 0.00 89 1013.8
20260906120524 68 0 0.0 2.0 0.00 0.00 0.00 89 1013.6
20260906120051 68 0 0.0 2.0 0.00 0.00 0.00 89 1013.6
20260906115523 68 114 0.0 2.0 0.00 0.00 0.00 89 1013.4
20260906115024 68 0 0.0 1.0 0.00 0.00 0.00 89 1013.4
20260906114546 68 0 0.0 1.0 0.00 0.00 0.00 89 1013.3
20260906114025 68 0 0.0 1.0 0.00 0.00 0.00 88 1013.3
20260906113524 69 114 0.0 1.0 0.00 0.00 0.00 89 1013.2
20260906113053 69 0 0.0 2.0 0.00 0.00 0.00 89 1013.1
20260906112529 69 0 0.0 2.0 0.00 0.00 0.00 89 1013.2
20260906112023 68 114 0.0 2.0 0.00 0.00 0.00 88 1013.1
20260906111552 68 0 0.0 0.0 0.00 0.00 0.00 88 1013.2
20260906111024 69 0 0.0 0.0 0.00 0.00 0.00 88 1013.1
20260906110524 69 0 0.0 0.0 0.00 0.00 0.00 88 1013.1
20260906110053 69 0 0.0 1.0 0.00 0.00 0.00 88 1013.2
20260906105524 69 0 0.0 1.0 0.00 0.00 0.00 88 1013.0
20260906105024 69 0 0.0 1.0 0.00 0.00 0.00 88 1013.1
20260906104554 69 0 0.0 2.0 0.00 0.00 0.00 87 1013.1
20260906104026 70 0 0.0 2.0 0.00 0.00 0.00 87 1013.1
20260906103529 70 0 0.0 1.0 0.00 0.00 0.00 87 1013.1
20260906103103 70 0 0.0 0.0 0.00 0.00 0.00 88 1013.0
20260906102523 70 0 0.0 2.0 0.00 0.00 0.00 88 1012.9
20260906102026 70 0 0.0 2.0 0.00 0.00 0.00 88 1012.9
20260906101554 70 114 0.0 2.0 0.00 0.00 0.00 88 1012.9
20260906101023 70 0 0.0 0.0 0.00 0.00 0.00 87 1012.9
20260906100524 70 0 0.0 0.0 0.00 0.00 0.00 87 1012.9
20260906100047 70 0 0.0 0.0 0.00 0.00 0.00 87 1012.9
20260906095524 70 0 0.0 0.0 0.00 0.00 0.00 87 1012.8
20260906095024 70 0 0.0 0.0 0.00 0.00 0.00 87 1012.7
20260906094553 70 0 0.0 0.0 0.00 0.00 0.00 87 1012.7
20260906094024 70 0 0.0 0.0 0.00 0.00 0.00 86 1012.8
20260906093527 70 0 0.0 0.0 0.00 0.00 0.00 86 1012.9
20260906093059 70 0 0.0 0.0 0.00 0.00 0.00 86 1012.9
20260906092524 70 0 0.0 0.0 0.00 0.00 0.00 86 1012.8
20260906092031 71 0 0.0 0.0 0.00 0.00 0.00 85 1012.8
20260906091553 71 0 0.0 0.0 0.00 0.00 0.00 85 1012.7
20260906091024 71 0 0.0 0.0 0.00 0.00 0.00 84 1012.8
20260906090523 71 0 0.0 0.0 0.00 0.00 0.00 84 1012.8
20260906085525 72 0 0.0 0.0 0.00 0.00 0.00 84 1012.9
20260906085023 72 0 0.0 0.0 0.00 0.00 0.00 84 1012.9
20260906084556 72 0 0.0 0.0 0.00 0.00 0.00 84 1012.9
20260906084025 72 0 0.0 0.0 0.00 0.00 0.00 83 1012.8
20260906083524 72 0 0.0 0.0 0.00 0.00 0.00 83 1012.8
20260906083052 72 0 0.0 0.0 0.00 0.00 0.00 83 1012.7
20260906082524 72 0 0.0 0.0 0.00 0.00 0.00 82 1012.8
20260906082027 73 0 0.0 0.0 0.00 0.00 0.00 83 1012.8
20260906081554 73 0 0.0 2.0 0.00 0.00 0.00 82 1012.8
20260906081024 73 0 0.0 2.0 0.00 0.00 0.00 81 1012.8
20260906080524 73 114 0.0 2.0 0.00 0.00 0.00 80 1012.7
20260906080106 73 0 0.0 0.0 0.00 0.00 0.00 80 1012.7
20260906075524 73 0 0.0 0.0 0.00 0.00 0.00 80 1012.7
20260906075026 74 0 0.0 0.0 0.00 0.00 0.00 79 1012.7
20260906074606 74 0 0.0 0.0 0.00 0.00 0.00 78 1012.6
20260906074024 74 0 0.0 0.0 0.00 0.00 0.00 78 1012.5
20260906073526 75 0 0.0 0.0 0.00 0.00 0.00 77 1012.5
20260906073106 75 0 0.0 0.0 0.00 0.00 0.00 76 1012.4
20260906072528 76 0 0.0 0.0 0.00 0.00 0.00 76 1012.5
20260906072027 76 0 0.0 4.0 0.00 0.00 0.00 75 1012.4
20260906071552 76 0 0.0 4.0 0.00 0.00 0.00 76 1012.5
20260906071026 76 115 1.0 4.0 0.00 0.00 0.00 76 1012.5
20260906070524 76 0 0.0 2.0 0.00 0.00 0.00 76 1012.5
20260906070050 76 115 0.0 2.0 0.00 0.00 0.00 75 1012.7
20260906065523 76 115 0.0 2.0 0.00 0.00 0.00 74 1012.8
20260906065025 77 0 0.0 1.0 0.00 0.00 0.00 73 1012.8
20260906064555 77 0 0.0 1.0 0.00 0.00 0.00 73 1012.7
20260906064027 78 115 0.0 2.0 0.00 0.00 0.00 72 1012.7
20260906063526 78 0 0.0 4.0 0.00 0.00 0.00 70 1012.7
20260906063054 79 115 1.0 4.0 0.00 0.00 0.00 69 1012.7
20260906062528 79 117 2.0 4.0 0.00 0.00 0.00 69 1012.7
20260906062023 79 117 1.0 3.0 0.00 0.00 0.00 68 1012.7
20260906061552 79 0 0.0 3.0 0.00 0.00 0.00 68 1012.6
20260906061024 79 0 0.0 3.0 0.00 0.00 0.00 67 1012.5
20260906060523 80 118 0.0 4.0 0.00 0.00 0.00 67 1012.6
20260906060049 80 0 1.0 9.0 0.00 0.00 0.00 67 1012.7
20260906055526 80 120 3.0 10.0 0.00 0.00 0.00 67 1012.7
20260906055026 80 110 6.0 10.0 0.00 0.00 0.00 67 1012.7
20260906054555 80 97 7.0 10.0 0.00 0.00 0.00 67 1012.7
20260906054024 80 107 7.0 10.0 0.00 0.00 0.00 67 1012.6
20260906053526 80 105 6.0 9.0 0.00 0.00 0.00 66 1012.6
20260906053054 81 118 6.0 10.0 0.00 0.00 0.00 66 1012.6
20260906052528 81 112 6.0 10.0 0.00 0.00 0.00 66 1012.5
20260906052024 81 107 6.0 10.0 0.00 0.00 0.00 66 1012.4
20260906051601 81 105 5.0 9.0 0.00 0.00 0.00 66 1012.4
20260906051026 81 103 6.0 9.0 0.00 0.00 0.00 66 1012.3
20260906050523 81 102 5.0 10.0 0.00 0.00 0.00 66 1012.3
20260906050104 81 108 5.0 10.0 0.00 0.00 0.00 66 1012.3
20260906045526 81 106 4.0 9.0 0.00 0.00 0.00 66 1012.3
20260906045025 81 113 5.0 9.0 0.00 0.00 0.00 66 1012.3
20260906044555 81 109 5.0 9.0 0.00 0.00 0.00 66 1012.4
20260906044025 82 105 4.0 10.0 0.00 0.00 0.00 66 1012.4
20260906043527 82 120 4.0 10.0 0.00 0.00 0.00 66 1012.3
20260906043058 82 109 5.0 10.0 0.00 0.00 0.00 66 1012.3
20260906042523 82 98 3.0 8.0 0.00 0.00 0.00 66 1012.4
20260906042024 82 111 4.0 8.0 0.00 0.00 0.00 66 1012.4
20260906041549 82 104 5.0 8.0 0.00 0.00 0.00 66 1012.5
20260906041025 82 108 4.0 8.0 0.00 0.00 0.00 66 1012.4
20260906040524 82 116 2.0 7.0 0.00 0.00 0.00 67 1012.3
20260906040059 82 119 3.0 7.0 0.00 0.00 0.00 67 1012.4
20260906035525 82 122 3.0 7.0 0.00 0.00 0.00 67 1012.4
20260906035026 82 115 2.0 6.0 0.00 0.00 0.00 67 1012.3
20260906034617 82 113 2.0 7.0 0.00 0.00 0.00 67 1012.3
20260906034030 82 105 3.0 7.0 0.00 0.00 0.00 68 1012.4
20260906033524 82 105 3.0 7.0 0.00 0.00 0.00 68 1012.3
20260906033054 82 101 4.0 7.0 0.00 0.00 0.00 69 1012.2
20260906032526 82 104 3.0 7.0 0.00 0.00 0.00 69 1012.1
20260906032025 82 105 3.0 7.0 0.00 0.00 0.00 69 1012.1
20260906031552 82 107 3.0 7.0 0.00 0.00 0.00 69 1012.0
20260906031024 82 101 2.0 7.0 0.00 0.00 0.00 69 1012.1
20260906030526 82 96 3.0 7.0 0.00 0.00 0.00 69 1012.1
20260906030055 82 93 3.0 7.0 0.00 0.00 0.00 68 1012.0
20260906025526 83 101 2.0 7.0 0.00 0.00 0.00 67 1012.0
20260906025025 83 101 3.0 7.0 0.00 0.00 0.00 66 1012.0
20260906024553 83 107 3.0 7.0 0.00 0.00 0.00 66 1011.9
20260906024027 84 98 3.0 6.0 0.00 0.00 0.00 66 1011.8
20260906023525 84 101 2.0 8.0 0.00 0.00 0.00 66 1011.8
20260906023050 84 110 3.0 8.0 0.00 0.00 0.00 65 1011.7
20260906022530 84 97 2.0 7.0 0.00 0.00 0.00 65 1011.6
20260906022024 84 94 3.0 7.0 0.00 0.00 0.00 65 1011.5
20260906021553 84 105 2.0 4.0 0.00 0.00 0.00 65 1011.4
20260906021024 84 105 2.0 6.0 0.00 0.00 0.00 64 1011.2
20260906020524 85 106 2.0 6.0 0.00 0.00 0.00 63 1011.1
20260906020100 85 101 3.0 6.0 0.00 0.00 0.00 62 1011.1
20260906015527 86 101 2.0 6.0 0.00 0.00 0.00 61 1011.0
20260906015025 87 101 3.0 8.0 0.00 0.00 0.00 60 1010.8
20260906014547 87 97 3.0 9.0 0.00 0.00 0.00 59 1010.8
20260906014025 87 69 4.0 10.0 0.00 0.00 0.00 58 1010.7
20260906013525 88 134 3.0 10.0 0.00 0.00 0.00 57 1010.7
20260906013105 88 90 2.0 10.0 0.00 0.00 0.00 57 1010.6
20260906012526 88 82 4.0 10.0 0.00 0.00 0.00 56 1010.6
20260906012026 88 76 3.0 10.0 0.00 0.00 0.00 57 1010.6
20260906011555 89 107 1.0 6.0 0.00 0.00 0.00 56 1010.5
20260906011027 89 107 1.0 11.0 0.00 0.00 0.00 56 1010.6
20260906010527 89 108 3.0 11.0 0.00 0.00 0.00 55 1010.6
20260906010055 89 85 4.0 11.0 0.00 0.00 0.00 55 1010.5
20260906005523 90 81 2.0 6.0 0.00 0.00 0.00 54 1010.6
20260906005025 90 110 2.0 6.0 0.00 0.00 0.00 53 1010.6
20260906004548 91 109 2.0 8.0 0.00 0.00 0.00 53 1010.6
20260906004027 91 96 2.0 8.0 0.00 0.00 0.00 52 1010.6
20260906003524 92 113 4.0 7.0 0.00 0.00 0.00 51 1010.6
20260906003046 92 117 3.0 7.0 0.00 0.00 0.00 50 1010.5
20260906002525 93 108 3.0 9.0 0.00 0.00 0.00 49 1010.5
20260906002027 93 107 5.0 9.0 0.00 0.00 0.00 48 1010.4
20260906001553 93 111 4.0 10.0 0.00 0.00 0.00 48 1010.4
20260906001024 94 107 3.0 10.0 0.00 0.00 0.00 47 1010.4
20260906000525 94 124 3.0 10.0 0.00 0.00 0.00 47 1010.5
20260906000104 94 126 4.0 8.0 0.00 0.00 0.00 46 1010.6
20260905235528 94 128 3.0 10.0 0.00 0.00 0.00 46 1010.6
20260905235024 95 119 4.0 11.0 0.00 0.00 0.00 45 1010.6
20260905234556 95 132 4.0 11.0 0.00 0.00 0.00 45 1010.7
20260905234025 95 118 5.0 11.0 0.00 0.00 0.00 45 1010.6
20260905233527 96 101 5.0 12.0 0.00 0.00 0.00 44 1010.6
20260905233056 96 126 4.0 12.0 0.00 0.00 0.00 43 1010.6
20260905232528 96 126 5.0 12.0 0.00 0.00 0.00 43 1010.6
20260905232028 96 109 6.0 12.0 0.00 0.00 0.00 42 1010.6
20260905231555 96 106 5.0 13.0 0.00 0.00 0.00 41 1010.6
20260905231028 97 106 6.0 13.0 0.00 0.00 0.00 41 1010.6
20260905230525 98 113 8.0 13.0 0.00 0.00 0.00 39 1010.6
20260905225529 99 156 7.0 13.0 0.00 0.00 0.00 39 1010.6
20260905225026 99 142 8.0 13.0 0.00 0.00 0.00 38 1010.6
20260905224556 99 131 7.0 12.0 0.00 0.00 0.00 37 1010.5
20260905224024 99 136 6.0 11.0 0.00 0.00 0.00 38 1010.5
20260905223527 98 129 6.0 11.0 0.00 0.00 0.00 39 1010.6
20260905223055 98 133 4.0 11.0 0.00 0.00 0.00 38 1010.6
20260905222530 99 109 5.0 11.0 0.00 0.00 0.00 38 1010.7
20260905222024 100 126 6.0 11.0 0.00 0.00 0.00 37 1010.7
20260905221551 100 153 5.0 12.0 0.00 0.00 0.00 36 1010.7
20260905221030 100 183 6.0 12.0 0.00 0.00 0.00 36 1010.7
20260905220528 101 135 5.0 11.0 0.00 0.00 0.00 36 1010.7
20260905220108 101 122 4.0 14.0 0.00 0.00 0.00 36 1010.8
20260905215526 101 167 6.0 16.0 0.00 0.00 0.00 36 1010.8
20260905215025 101 146 8.0 16.0 0.00 0.00 0.00 36 1010.7
20260905214553 101 157 7.0 12.0 0.00 0.00 0.00 35 1010.8
20260905214029 101 109 7.0 13.0 0.00 0.00 0.00 35 1010.9
20260905213525 101 128 6.0 13.0 0.00 0.00 0.00 35 1011.0
20260905213052 100 130 6.0 14.0 0.00 0.00 0.00 37 1011.1
20260905212526 100 92 6.0 14.0 0.00 0.00 0.00 38 1011.2
20260905212024 100 180 7.0 13.0 0.00 0.00 0.00 38 1011.1
20260905211551 99 104 5.0 13.0 0.00 0.00 0.00 39 1011.1
20260905211029 99 107 4.0 13.0 0.00 0.00 0.00 38 1011.1
20260905210529 99 138 4.0 11.0 0.00 0.00 0.00 39 1011.2
20260905210106 99 123 6.0 11.0 0.00 0.00 0.00 40 1011.1
20260905205528 98 107 5.0 11.0 0.00 0.00 0.00 40 1011.1
20260905205027 98 153 6.0 11.0 0.00 0.00 0.00 40 1011.2
20260905204555 98 105 4.0 10.0 0.00 0.00 0.00 42 1011.2
20260905204024 98 146 6.0 10.0 0.00 0.00 0.00 41 1011.3
20260905203529 98 126 5.0 10.0 0.00 0.00 0.00 40 1011.3
20260905203117 98 150 6.0 10.0 0.00 0.00 0.00 41 1011.5
20260905202524 98 126 5.0 11.0 0.00 0.00 0.00 41 1011.5
20260905202025 98 140 6.0 12.0 0.00 0.00 0.00 40 1011.6
20260905201548 98 137 5.0 12.0 0.00 0.00 0.00 40 1011.7
20260905201024 99 136 6.0 11.0 0.00 0.00 0.00 40 1011.8
20260905200526 100 86 7.0 11.0 0.00 0.00 0.00 39 1011.8
20260905195526 100 178 4.0 10.0 0.00 0.00 0.00 40 1011.9
20260905195032 99 157 3.0 10.0 0.00 0.00 0.00 42 1012.0
20260905194553 98 134 6.0 10.0 0.00 0.00 0.00 41 1012.0
20260905194025 98 185 3.0 10.0 0.00 0.00 0.00 41 1012.1
20260905193527 98 147 6.0 11.0 0.00 0.00 0.00 41 1012.2
20260905193050 98 176 6.0 11.0 0.00 0.00 0.00 42 1012.3
20260905192525 98 126 6.0 11.0 0.00 0.00 0.00 42 1012.4
20260905192024 98 188 7.0 11.0 0.00 0.00 0.00 40 1012.4
20260905191558 98 196 5.0 9.0 0.00 0.00 0.00 43 1012.4
20260905191027 97 185 6.0 10.0 0.00 0.00 0.00 44 1012.4
20260905190525 98 216 4.0 10.0 0.00 0.00 0.00 43 1012.5
20260905190057 97 150 5.0 9.0 0.00 0.00 0.00 44 1012.5